Location: Epalinges
(46.5518°N, 6.6683°E)
Time: 02:34:33
(UTC+00:00)

USA 306 - Pass Details

Date: 20 June 2021
Orbit: 566 x 573 km, 54.0° (Epoch: 16 July)

Event Time Altitude Azimuth Distance (km) Brightness Sun altitude
Exits shadow 01:31:13 27° 221° (SW) 1,104 3.8 -15.2°
Maximum altitude 01:33:25 70° 143° (SE) 608 2.9 -15.1°
Drops below altitude 10° 01:37:39 10° 61° (ENE) 1,872 6.4 -14.7°
Sets 01:39:55 0° 59° (ENE) 2,771 7.5 -14.5°
